Content
SEND FEEDBACK

Daily
Averages
Monthly
Summary
United States of America

RIMROCK, ARIZONA


Home > North America > United States > Arizona
Elevation: 3830 feet     Latitude: 34 40N     Longitude: 111 43W

WEATHER
 
SELECT A DAY
Number of Records: 140,207;   Date Range: 1/4/95 - 11/26/14
 
SHARE

PRINT THIS DATA

[ ← Previous Day ]
WEATHER ALMANAC - MAY 4, 2014
[ Next Day → ]
[ °C ]   °F
Weather ElementAverageHighLow
Temperature72.7 °F86 °F (1:55 pm)59 °F (5:35 am)
Dewpoint17.7 °F21.2 °F (7:35 am)14 °F (9:35 pm)
Humidity13.1 %20 % (5:35 am)9 % (11:35 am)
Barometer30.09 in30.14 in (8:35 am)30.02 in (5:55 pm)
Wind Speed9 mph20.7 mph (1:55 pm)
Wind Gust32.2 mph (2:15 pm)
Weather ElementAverage
Visibility10 mi
Wind DirectionSSE (153.6 °)

Weather ElementTotal
Precipitation---
Cooling Degree Days7.5 (Base 65)
Growing Degree Days22.5 (Base 50)
Averaged from 70 records on May 4, 2014
WEATHER CONDITIONS BREAKOUT
WIND DIRECTION BREAKOUT
WEATHER BY HOUR - MAY 4, 2014
[ °C ]   °F
Local TimeTemperatureDewpointHumidityBarometerVisibilityWind DirectionWind SpeedGust SpeedPrecipitationEventsConditions
12:35 AM66.2 °F17.6 °F15 %30.09 in10.0 miCalmClear
12:55 AM64.4 °F17.6 °F16 %30.09 in10.0 miCalmClear
1:15 AM62.6 °F17.6 °F18 %30.09 in10.0 miNorth (360°)6.9 mphClear
1:35 AM62.6 °F17.6 °F18 %30.09 in10.0 miCalmClear
1:55 AM66.2 °F17.6 °F15 %30.09 in10.0 miCalmClear
2:15 AM62.6 °F17.6 °F18 %30.08 in10.0 miCalmClear
2:35 AM60.8 °F17.6 °F19 %30.08 in10.0 miNNE (30°)5.8 mphClear
2:55 AM60.8 °F17.6 °F19 %30.08 in10.0 miNE (50°)3.5 mphClear
3:15 AM60.8 °F17.6 °F19 %30.08 in10.0 miENE (60°)4.6 mphClear
3:35 AM62.6 °F17.6 °F18 %30.08 in10.0 miEast (80°)3.5 mphClear
3:55 AM62.6 °F17.6 °F18 %30.09 in10.0 miESE (120°)3.5 mphClear
4:15 AM62.6 °F17.6 °F18 %30.09 in10.0 miCalmClear
4:35 AM60.8 °F17.6 °F19 %30.09 in10.0 miCalmClear
4:55 AM60.8 °F17.6 °F19 %30.09 in10.0 miCalmClear
5:15 AM60.8 °F17.6 °F19 %30.10 in10.0 miNNE (20°)3.5 mphClear
5:35 AM59.0 °F17.6 °F20 %30.10 in10.0 miNNE (20°)4.6 mphClear
5:55 AM59.0 °F17.6 °F20 %30.10 in10.0 miNE (50°)3.5 mphClear
6:15 AM60.8 °F17.6 °F19 %30.11 in10.0 miCalmClear
6:35 AM60.8 °F19.4 °F20 %30.12 in10.0 miNNE (30°)4.6 mphClear
6:55 AM62.6 °F19.4 °F19 %30.12 in10.0 miCalmClear
7:15 AM66.2 °F19.4 °F17 %30.12 in10.0 miSE (130°)3.5 mphClear
7:35 AM68.0 °F21.2 °F17 %30.13 in10.0 miSSE (160°)3.5 mphClear
7:55 AM68.0 °F19.4 °F16 %30.13 in10.0 miSSE (160°)4.6 mphClear
8:15 AM71.6 °F19.4 °F14 %30.13 in10.0 miSouth (170°)5.8 mphClear
8:35 AM71.6 °F19.4 °F14 %30.14 in10.0 miSouth (180°)9.2 mphClear
8:55 AM77.0 °F21.2 °F12 %30.14 in10.0 miSSE (160°)8.1 mphClear
9:35 AM77.0 °F19.4 °F12 %30.14 in10.0 miSSW (200°)12.7 mph17.3 mphClear
9:55 AM78.8 °F19.4 °F11 %30.14 in10.0 miSouth (170°)12.7 mph19.6 mphClear
10:15 AM78.8 °F17.6 °F10 %30.14 in10.0 miSouth (170°)10.4 mph20.7 mphClear
10:35 AM80.6 °F17.6 °F10 %30.14 in10.0 miSouth (190°)10.4 mph18.4 mphClear
10:55 AM80.6 °F17.6 °F10 %30.14 in10.0 miSW (230°)11.5 mph23.0 mphClear
11:15 AM82.4 °F19.4 °F10 %30.13 in10.0 miSouth (190°)12.7 mph19.6 mphClear
11:35 AM82.4 °F17.6 °F9 %30.13 in10.0 miSW (220°)10.4 mph20.7 mphClear
11:55 AM82.4 °F17.6 °F9 %30.12 in10.0 miSouth (170°)11.5 mph21.9 mphClear
12:15 PM82.4 °F17.6 °F9 %30.12 in10.0 miSW (230°)6.9 mph23.0 mphClear
12:35 PM82.4 °F17.6 °F9 %30.10 in10.0 miSSW (210°)16.1 mph23.0 mphClear
12:55 PM84.2 °F19.4 °F9 %30.10 in10.0 miSW (230°)10.4 mph18.4 mphClear
1:15 PM84.2 °F19.4 °F9 %30.08 in10.0 miSW (220°)19.6 mph31.1 mphClear
1:35 PM82.4 °F19.4 °F10 %30.08 in10.0 miSouth (190°)16.1 mph26.5 mphClear
1:55 PM86.0 °F19.4 °F9 %30.08 in10.0 miSW (230°)20.7 mph26.5 mphClear
2:15 PM86.0 °F19.4 °F9 %30.07 in10.0 miSSW (200°)17.3 mph32.2 mphClear
2:35 PM84.2 °F19.4 °F9 %30.06 in10.0 miSW (230°)11.5 mph25.3 mphClear
2:55 PM84.2 °F19.4 °F9 %30.05 in10.0 miSSW (210°)15.0 mph29.9 mphClear
3:15 PM84.2 °F19.4 °F9 %30.04 in10.0 miSSW (200°)18.4 mph27.6 mphClear
3:35 PM82.4 °F17.6 °F9 %30.04 in10.0 miSW (220°)17.3 mph31.1 mphClear
3:55 PM82.4 °F17.6 °F9 %30.04 in10.0 miSW (220°)18.4 mph27.6 mphClear
4:15 PM82.4 °F19.4 °F10 %30.03 in10.0 miSouth (180°)15.0 mph27.6 mphClear
4:35 PM82.4 °F19.4 °F10 %30.03 in10.0 miSSW (200°)19.6 mph28.8 mphClear
4:55 PM80.6 °F19.4 °F10 %30.03 in10.0 miSouth (180°)12.7 mph28.8 mphClear
5:15 PM80.6 °F17.6 °F10 %30.03 in10.0 miSouth (180°)16.1 mph32.2 mphClear
5:35 PM80.6 °F17.6 °F10 %30.03 in10.0 miSSW (200°)18.4 mph24.2 mphClear
5:55 PM78.8 °F17.6 °F10 %30.02 in10.0 miSouth (180°)20.7 mph26.5 mphClear
6:15 PM78.8 °F17.6 °F10 %30.03 in10.0 miSouth (190°)9.2 mph20.7 mphClear
6:35 PM77.0 °F17.6 °F11 %30.03 in10.0 miSSW (200°)18.4 mph26.5 mphClear
6:55 PM77.0 °F17.6 °F11 %30.03 in10.0 miSSW (200°)12.7 mph23.0 mphClear
7:15 PM75.2 °F17.6 °F11 %30.04 in10.0 miSouth (190°)11.5 mph19.6 mphClear
7:35 PM73.4 °F17.6 °F12 %30.05 in10.0 miSouth (180°)9.2 mphClear
7:55 PM73.4 °F17.6 °F12 %30.05 in10.0 miSouth (190°)9.2 mphClear
8:15 PM73.4 °F17.6 °F12 %30.06 in10.0 miSouth (190°)11.5 mph20.7 mphClear
8:35 PM71.6 °F15.8 °F12 %30.06 in10.0 miSSW (210°)10.4 mph16.1 mphClear
8:55 PM71.6 °F15.8 °F12 %30.07 in10.0 miSSW (210°)10.4 mph16.1 mphClear
9:15 PM71.6 °F15.8 °F12 %30.07 in10.0 miSSW (200°)10.4 mphClear
9:35 PM69.8 °F14.0 °F12 %30.08 in10.0 miSSW (200°)5.8 mphClear
9:55 PM69.8 °F14.0 °F12 %30.09 in10.0 miSSW (200°)6.9 mphClear
10:15 PM68.0 °F14.0 °F12 %30.09 in10.0 miSW (230°)6.9 mphClear
10:35 PM68.0 °F14.0 °F12 %30.09 in10.0 miSW (220°)8.1 mphClear
10:55 PM68.0 °F14.0 °F12 %30.10 in10.0 miSW (220°)6.9 mphClear
11:15 PM68.0 °F14.0 °F12 %30.10 in10.0 miSW (230°)8.1 mphClear
11:35 PM68.0 °F14.0 °F12 %30.11 in10.0 miSW (220°)8.1 mphClear
11:55 PM68.0 °F14.0 °F12 %30.10 in10.0 miWSW (240°)5.8 mphClear
Hourly data recorded from KSEZ, located miles away from Rimrock, Arizona







STORIES FROM OUR PARTNERS